| time (UTC) | temp C | wind direction | speed KPH | gust KPH | rain 1hr cm | rain 24hr cm | rain mn cm | humidity % | barometer mb |
| 20260509022406 | 5 | 103 | 0.0 | 3.2 | 0.00 | 0.00 | 0.00 | 94 | 1020.4 |
| 20260509021405 | 5 | 109 | 1.6 | 3.2 | 0.00 | 0.00 | 0.00 | 94 | 1020.5 |
| 20260509020406 | 5 | 109 | 1.6 | 3.2 | 0.00 | 0.00 | 0.00 | 94 | 1020.3 |
| 20260509015406 | 5 | 110 | 1.6 | 4.8 | 0.00 | 0.00 | 0.00 | 94 | 1020.3 |
| 20260509014406 | 5 | 111 | 1.6 | 4.8 | 0.00 | 0.00 | 0.00 | 94 | 1020.3 |
| 20260509013406 | 6 | 115 | 1.6 | 4.8 | 0.00 | 0.00 | 0.00 | 93 | 1020.4 |
| 20260509012406 | 6 | 126 | 0.0 | 3.2 | 0.00 | 0.00 | 0.00 | 93 | 1020.4 |
| 20260509010406 | 6 | 127 | 1.6 | 3.2 | 0.00 | 0.00 | 0.00 | 93 | 1020.3 |
| 20260509005406 | 6 | 128 | 1.6 | 4.8 | 0.00 | 0.00 | 0.00 | 92 | 1020.2 |
| 20260509003406 | 6 | 128 | 0.0 | 1.6 | 0.00 | 0.00 | 0.00 | 92 | 1020.2 |
| 20260509002406 | 6 | 128 | 0.0 | 0.0 | 0.00 | 0.00 | 0.00 | 92 | 1020.2 |
| 20260509001406 | 6 | 128 | 0.0 | 1.6 | 0.00 | 0.00 | 0.00 | 91 | 1020.1 |
| 20260509000406 | 6 | 128 | 0.0 | 1.6 | 0.00 | 0.00 | 0.00 | 91 | 1020.1 |
| 20260508235407 | 6 | 128 | 0.0 | 3.2 | 0.00 | 0.00 | 0.00 | 91 | 1020.1 |
| 20260508233406 | 6 | 128 | 0.0 | 1.6 | 0.00 | 0.00 | 0.00 | 89 | 1020.1 |
| 20260508232406 | 6 | 128 | 0.0 | 1.6 | 0.00 | 0.00 | 0.00 | 89 | 1020.1 |
| 20260508231407 | 7 | 128 | 0.0 | 1.6 | 0.00 | 0.00 | 0.00 | 88 | 1020.1 |
| 20260508230410 | 7 | 128 | 0.0 | 0.0 | 0.00 | 0.00 | 0.00 | 87 | 1020.2 |
| 20260508225407 | 7 | 128 | 0.0 | 0.0 | 0.00 | 0.00 | 0.00 | 86 | 1020.2 |
| 20260508224407 | 7 | 128 | 0.0 | 1.6 | 0.00 | 0.00 | 0.00 | 85 | 1020.1 |
| 20260508222407 | 8 | 130 | 3.2 | 4.8 | 0.00 | 0.00 | 0.00 | 83 | 1019.9 |
| 20260508220407 | 8 | 130 | 1.6 | 3.2 | 0.00 | 0.00 | 0.00 | 82 | 1020.0 |
| 20260508215408 | 8 | 131 | 0.0 | 3.2 | 0.00 | 0.00 | 0.00 | 81 | 1019.9 |
| 20260508214407 | 8 | 131 | 0.0 | 0.0 | 0.00 | 0.00 | 0.00 | 81 | 1020.0 |
| 20260508213408 | 8 | 131 | 0.0 | 1.6 | 0.00 | 0.00 | 0.00 | 79 | 1020.0 |
| 20260508212408 | 9 | 131 | 0.0 | 1.6 | 0.00 | 0.00 | 0.00 | 78 | 1019.9 |
| 20260508211408 | 9 | 131 | 0.0 | 3.2 | 0.00 | 0.00 | 0.00 | 76 | 1019.9 |
| 20260508210407 | 10 | 131 | 0.0 | 1.6 | 0.00 | 0.00 | 0.00 | 75 | 1019.9 |
| 20260508204407 | 10 | 131 | 1.6 | 3.2 | 0.00 | 0.00 | 0.00 | 70 | 1019.8 |
| 20260508202408 | 11 | 130 | 3.2 | 4.8 | 0.00 | 0.00 | 0.00 | 68 | 1019.8 |
| 20260508201408 | 11 | 116 | 3.2 | 6.4 | 0.00 | 0.00 | 0.00 | 68 | 1019.7 |
| 20260508195408 | 11 | 112 | 0.0 | 0.0 | 0.00 | 0.00 | 0.00 | 66 | 1019.5 |
| 20260508193408 | 12 | 112 | 1.6 | 3.2 | 0.00 | 0.00 | 0.00 | 64 | 1019.3 |
| 20260508192411 | 12 | 112 | 0.0 | 3.2 | 0.00 | 0.00 | 0.00 | 63 | 1019.2 |
| 20260508191408 | 13 | 112 | 1.6 | 3.2 | 0.00 | 0.00 | 0.00 | 60 | 1019.1 |
| 20260508190408 | 13 | 112 | 1.6 | 3.2 | 0.00 | 0.00 | 0.00 | 58 | 1018.9 |
| 20260508185409 | 13 | 112 | 0.0 | 3.2 | 0.00 | 0.00 | 0.00 | 55 | 1018.9 |
| 20260508184408 | 14 | 113 | 1.6 | 4.8 | 0.00 | 0.00 | 0.00 | 54 | 1018.8 |
| 20260508183411 | 15 | 105 | 3.2 | 4.8 | 0.00 | 0.00 | 0.00 | 51 | 1018.7 |
| 20260508182408 | 15 | 113 | 4.8 | 11.3 | 0.00 | 0.00 | 0.00 | 50 | 1018.6 |
| 20260508181408 | 16 | 134 | 6.4 | 14.5 | 0.00 | 0.00 | 0.00 | 49 | 1018.6 |
| 20260508180408 | 16 | 114 | 8.0 | 14.5 | 0.00 | 0.00 | 0.00 | 50 | 1018.5 |
| 20260508175409 | 16 | 113 | 6.4 | 14.5 | 0.00 | 0.00 | 0.00 | 49 | 1018.4 |
| 20260508174409 | 16 | 104 | 8.0 | 14.5 | 0.00 | 0.00 | 0.00 | 47 | 1018.4 |
| 20260508172409 | 16 | 90 | 9.7 | 16.1 | 0.00 | 0.00 | 0.00 | 47 | 1018.2 |
| 20260508171409 | 16 | 117 | 4.8 | 12.9 | 0.00 | 0.00 | 0.00 | 49 | 1018.1 |
| 20260508170409 | 16 | 99 | 8.0 | 16.1 | 0.00 | 0.00 | 0.00 | 48 | 1018.2 |
| 20260508165409 | 17 | 131 | 9.7 | 17.7 | 0.00 | 0.00 | 0.00 | 44 | 1018.2 |
| 20260508164409 | 17 | 165 | 8.0 | 17.7 | 0.00 | 0.00 | 0.00 | 44 | 1018.0 |
| 20260508163409 | 17 | 148 | 6.4 | 14.5 | 0.00 | 0.00 | 0.00 | 45 | 1018.1 |
| 20260508162409 | 17 | 132 | 6.4 | 12.9 | 0.00 | 0.00 | 0.00 | 44 | 1018.0 |
| 20260508161409 | 17 | 131 | 8.0 | 16.1 | 0.00 | 0.00 | 0.00 | 46 | 1018.1 |
| 20260508160409 | 17 | 221 | 9.7 | 19.3 | 0.00 | 0.00 | 0.00 | 44 | 1018.1 |
| 20260508154410 | 17 | 136 | 6.4 | 19.3 | 0.00 | 0.00 | 0.00 | 42 | 1018.1 |
| 20260508153409 | 18 | 139 | 8.0 | 17.7 | 0.00 | 0.00 | 0.00 | 41 | 1018.1 |
| 20260508152409 | 18 | 119 | 9.7 | 16.1 | 0.00 | 0.00 | 0.00 | 41 | 1018.2 |
| 20260508151410 | 18 | 122 | 6.4 | 17.7 | 0.00 | 0.00 | 0.00 | 41 | 1018.1 |
| 20260508150410 | 17 | 76 | 6.4 | 16.1 | 0.00 | 0.00 | 0.00 | 41 | 1018.3 |
| 20260508145410 | 18 | 94 | 8.0 | 16.1 | 0.00 | 0.00 | 0.00 | 40 | 1018.3 |
| 20260508144413 | 18 | 57 | 6.4 | 14.5 | 0.00 | 0.00 | 0.00 | 39 | 1018.3 |
| 20260508143410 | 19 | 94 | 9.7 | 17.7 | 0.00 | 0.00 | 0.00 | 38 | 1018.4 |
| 20260508142501 | 19 | 97 | 8.0 | 19.3 | 0.00 | 0.00 | 0.00 | 38 | 1018.4 |
| 20260508141401 | 19 | 94 | 8.0 | 20.9 | 0.00 | 0.00 | 0.00 | 39 | 1018.5 |
| 20260508140401 | 18 | 80 | 9.7 | 17.7 | 0.00 | 0.00 | 0.00 | 40 | 1018.6 |
| 20260508135404 | 18 | 96 | 8.0 | 17.7 | 0.00 | 0.00 | 0.00 | 37 | 1018.5 |
| 20260508134401 | 18 | 86 | 6.4 | 14.5 | 0.00 | 0.00 | 0.00 | 36 | 1018.7 |
| 20260508132401 | 18 | 96 | 9.7 | 24.1 | 0.00 | 0.00 | 0.00 | 37 | 1018.8 |
| 20260508131401 | 18 | 15 | 8.0 | 19.3 | 0.00 | 0.00 | 0.00 | 40 | 1018.8 |
| 20260508125401 | 18 | 108 | 9.7 | 24.1 | 0.00 | 0.00 | 0.00 | 40 | 1018.9 |
| 20260508124401 | 17 | 102 | 12.9 | 22.5 | 0.00 | 0.00 | 0.00 | 40 | 1019.0 |
| 20260508123401 | 17 | 102 | 14.5 | 27.4 | 0.00 | 0.00 | 0.00 | 37 | 1019.0 |
| 20260508122405 | 17 | 108 | 14.5 | 24.1 | 0.00 | 0.00 | 0.00 | 40 | 1019.1 |
| 20260508121402 | 17 | 110 | 6.4 | 19.3 | 0.00 | 0.00 | 0.00 | 42 | 1019.2 |
| 20260508120402 | 17 | 103 | 11.3 | 25.7 | 0.00 | 0.00 | 0.00 | 42 | 1019.1 |
| 20260508115402 | 17 | 117 | 8.0 | 14.5 | 0.00 | 0.00 | 0.00 | 43 | 1019.1 |
| 20260508114402 | 16 | 132 | 14.5 | 24.1 | 0.00 | 0.00 | 0.00 | 41 | 1019.1 |
| 20260508113402 | 16 | 88 | 11.3 | 19.3 | 0.00 | 0.00 | 0.00 | 44 | 1019.3 |
| 20260508112402 | 16 | 62 | 9.7 | 17.7 | 0.00 | 0.00 | 0.00 | 43 | 1019.3 |
| 20260508111402 | 16 | 142 | 8.0 | 22.5 | 0.00 | 0.00 | 0.00 | 43 | 1019.3 |
| 20260508110402 | 16 | 148 | 11.3 | 20.9 | 0.00 | 0.00 | 0.00 | 40 | 1019.3 |
| 20260508105402 | 16 | 76 | 6.4 | 16.1 | 0.00 | 0.00 | 0.00 | 46 | 1019.4 |
| 20260508104405 | 15 | 59 | 9.7 | 22.5 | 0.00 | 0.00 | 0.00 | 44 | 1019.5 |
| 20260508102402 | 15 | 109 | 11.3 | 25.7 | 0.00 | 0.00 | 0.00 | 44 | 1019.4 |
| 20260508101402 | 15 | 132 | 9.7 | 22.5 | 0.00 | 0.00 | 0.00 | 47 | 1019.5 |
| 20260508100405 | 15 | 74 | 14.5 | 22.5 | 0.00 | 0.00 | 0.00 | 46 | 1019.7 |
| 20260508095405 | 15 | 134 | 12.9 | 24.1 | 0.00 | 0.00 | 0.00 | 47 | 1019.6 |
| 20260508094402 | 15 | 124 | 8.0 | 20.9 | 0.00 | 0.00 | 0.00 | 47 | 1019.7 |
| 20260508093403 | 15 | 107 | 9.7 | 20.9 | 0.00 | 0.00 | 0.00 | 50 | 1019.7 |
| 20260508092402 | 15 | 132 | 12.9 | 22.5 | 0.00 | 0.00 | 0.00 | 45 | 1019.8 |
| 20260508091403 | 14 | 108 | 11.3 | 22.5 | 0.00 | 0.00 | 0.00 | 46 | 1019.8 |
| 20260508090403 | 14 | 154 | 9.7 | 19.3 | 0.00 | 0.00 | 0.00 | 46 | 1019.9 |
| 20260508085403 | 13 | 138 | 11.3 | 24.1 | 0.00 | 0.00 | 0.00 | 46 | 1019.8 |
| 20260508084403 | 13 | 91 | 14.5 | 24.1 | 0.00 | 0.00 | 0.00 | 48 | 1019.9 |
| 20260508083403 | 13 | 165 | 12.9 | 20.9 | 0.00 | 0.00 | 0.00 | 52 | 1019.9 |
| 20260508082403 | 13 | 125 | 8.0 | 16.1 | 0.00 | 0.00 | 0.00 | 62 | 1019.8 |
| 20260508081406 | 13 | 126 | 11.3 | 19.3 | 0.00 | 0.00 | 0.00 | 58 | 1019.8 |
| 20260508080403 | 13 | 33 | 8.0 | 16.1 | 0.00 | 0.00 | 0.00 | 67 | 1019.9 |
| 20260508075404 | 13 | 94 | 4.8 | 14.5 | 0.00 | 0.00 | 0.00 | 70 | 1019.8 |
| 20260508074403 | 12 | 120 | 6.4 | 17.7 | 0.00 | 0.00 | 0.00 | 72 | 1019.9 |
| 20260508071403 | 12 | 54 | 4.8 | 11.3 | 0.00 | 0.00 | 0.00 | 78 | 1019.8 |
| 20260508070403 | 12 | 114 | 6.4 | 14.5 | 0.00 | 0.00 | 0.00 | 78 | 1019.7 |
| 20260508065404 | 11 | 125 | 3.2 | 11.3 | 0.00 | 0.00 | 0.00 | 81 | 1019.7 |
| 20260508064404 | 11 | 87 | 3.2 | 9.7 | 0.00 | 0.00 | 0.00 | 82 | 1019.5 |
| 20260508063407 | 10 | 41 | 3.2 | 11.3 | 0.00 | 0.00 | 0.00 | 84 | 1019.4 |
| 20260508062404 | 10 | 94 | 6.4 | 11.3 | 0.00 | 0.00 | 0.00 | 87 | 1019.4 |
| 20260508061404 | 9 | 115 | 6.4 | 11.3 | 0.00 | 0.00 | 0.00 | 90 | 1019.4 |
| 20260508060404 | 8 | 135 | 4.8 | 6.4 | 0.00 | 0.00 | 0.00 | 93 | 1019.3 |
| 20260508054407 | 7 | 89 | 3.2 | 9.7 | 0.00 | 0.00 | 0.00 | 95 | 1019.2 |
| 20260508053404 | 7 | 110 | 3.2 | 9.7 | 0.00 | 0.00 | 0.00 | 96 | 1019.2 |
| 20260508052404 | 7 | 84 | 4.8 | 11.3 | 0.00 | 0.00 | 0.00 | 96 | 1019.2 |
| 20260508051404 | 6 | 96 | 3.2 | 6.4 | 0.00 | 0.00 | 0.00 | 96 | 1019.1 |
| 20260508050407 | 5 | 115 | 1.6 | 3.2 | 0.00 | 0.00 | 0.00 | 95 | 1019.1 |
| 20260508045405 | 5 | 115 | 1.6 | 3.2 | 0.00 | 0.00 | 0.00 | 95 | 1019.0 |
| 20260508044404 | 4 | 115 | 1.6 | 4.8 | 0.00 | 0.00 | 0.00 | 95 | 1018.9 |
| 20260508043404 | 4 | 153 | 1.6 | 3.2 | 0.00 | 0.00 | 0.00 | 95 | 1018.9 |
| 20260508041405 | 4 | 160 | 0.0 | 0.0 | 0.00 | 0.00 | 0.00 | 95 | 1018.8 |
| 20260508040405 | 4 | 160 | 0.0 | 1.6 | 0.00 | 0.00 | 0.00 | 94 | 1018.8 |
| 20260508035405 | 4 | 160 | 0.0 | 1.6 | 0.00 | 0.00 | 0.00 | 94 | 1018.8 |
| 20260508034405 | 4 | 160 | 0.0 | 1.6 | 0.00 | 0.00 | 0.00 | 94 | 1018.7 |
| 20260508033405 | 4 | 160 | 0.0 | 1.6 | 0.00 | 0.00 | 0.00 | 94 | 1018.7 |
| 20260508032405 | 4 | 160 | 0.0 | 1.6 | 0.00 | 0.00 | 0.00 | 94 | 1018.8 |
| 20260508031408 | 4 | 160 | 0.0 | 0.0 | 0.00 | 0.00 | 0.00 | 94 | 1018.7 |
| 20260508030405 | 4 | 160 | 0.0 | 0.0 | 0.00 | 0.00 | 0.00 | 94 | 1018.6 |
| 20260508025406 | 5 | 160 | 0.0 | 0.0 | 0.00 | 0.00 | 0.00 | 94 | 1018.7 |
| 20260508024405 | 5 | 160 | 0.0 | 0.0 | 0.00 | 0.00 | 0.00 | 94 | 1018.7 |
| 20260508023405 | 5 | 160 | 0.0 | 0.0 | 0.00 | 0.00 | 0.00 | 94 | 1018.7 |